Погода в Новотырышкине

Россия / Новосибирская область     55°17′14″N   82°24′35″E
темп.,
°C
ветер,
м/с
пор.,
м/с
влажн.,
%
обл.,
%
осадки,
мм/ч
давл.,
гПа
погр.,
м
17 сентября, пт
пт1701:00+13ю486265 0.0 1006122
04:00+12ю4116997 0.0 1005205
07:00+12ю51468100 0.0 1004284
10:00+16ююв81752100 0.0 1002524
13:00+21ю91637100 0.0 999864
16:00+23ююз71231100 0.0 9981136
19:00+19ююз3545100 0.1 99685
22:00+16зюз1158100 0.0 99411
18 сентября, сб
сб1801:00+11зсз101488100 0.2 995660
04:00+8зюз713845 2.3 998844
07:00+7зюз7128943 2.3 1002839
10:00+9юз71069100 0.1 10061349
13:00+10зюз71264100 0.1 10081694
16:00+10зюз61061100 0.0 10091544
19:00+9зюз51063100 0.0 1010883
22:00+8юз3966100 0.0 1010575
19 сентября, вс
вс1901:00+8ююз4868100 0.0 1009350
04:00+8ю4964100 0.0 1008312
07:00+7ю41166100 0.0 1007347
10:00+9ююз6106018 0.1 10061112
13:00+13зюз7104759 0.1 10051789
16:00+12зюз675198 0.0 10051507
19:00+9зюз486195 0.0 1005737
22:00+6з4976100 0.0 1005348
20 сентября, пн
пн2001:00+6зюз4980100 0.1 1006357
04:00+5зюз51079100 0.1 1007405
07:00+3зюз5896100 0.3 1009652
10:00+4зюз7988100 0.4 1011752
13:00+4зюз5995100 0.9 1012788
16:00+6з677098 0.4 10131149
19:00+4з4696100 1.1 1014593
22:00+2зюз249452 0.3 1016123
21 сентября, вт
вт2101:00+1з36955 0.3 1017129
04:000з359667 0.0 1017116
07:00−1з369694 0.0 1019135
10:00+3зсз468982 0.0 1019465
13:00+5з6775100 0.1 1019923
16:00+4з5775100 0.1 10201081
19:00+4з3676100 0.1 1020460
22:00+3зюз4989100 0.2 1020315